Regional Weather Roundup
Issued by NWS Albany, NY

Home | Current Version | Previous Version | Text Only | Print | Product List | Glossary On
Versions: 1 2 3 4 5 6 7 8 9 10 11 12 13 14 15 16 17 18 19 20 21 22 23 24 25 26 27
000
ASUS41 KALY 291210
RWRALY

NEW YORK STATE HOURLY WEATHER ROUNDUP
NATIONAL WEATHER SERVICE ALBANY NY
800 AM EDT MON AUG 29 2016

NOTE: "FAIR" INDICATES FEW OR NO CLOUDS BELOW 12,000 FEET WITH NO
SIGNIFICANT WEATHER AND/OR NO OBSTRUCTIONS TO VISIBILITY.

NYZ032-033-038>043-046>054-057>066-NYZ062>081-082-084-291300-
EAST


CITY           SKY/WX    TMP DP  RH WIND       PRES   REMARKS
ALBANY         PTSUNNY   73  67  81 NW10      30.13R
GLENS FALLS    CLOUDY    75  63  66 CALM      30.12R
POUGHKEEPSIE   CLOUDY    73  65  75 CALM      30.11S
NEWBURGH       PTSUNNY   72  68  88 W8        30.15R
MONTGOMERY     CLOUDY    72  67  84 S3        30.13S
WHITE PLAINS   CLOUDY    73  65  75 W7        30.12R
ISLIP          PTSUNNY   75  66  73 SW7       30.11S
NEW YORK CITY  PTSUNNY   78  64  61 W8        30.11S
CENTRAL PARK   MOSUNNY   75  64  68 VRB5      30.15S
$$

NYZ005>009-017-018-044>046-055-056-291300-
CENTRAL


CITY           SKY/WX    TMP DP  RH WIND       PRES   REMARKS
FULTON         SUNNY     68  65  90 NW3       30.21R
SYRACUSE       MOSUNNY   70  65  84 NW7       30.20R
ROME           CLOUDY    66  65  96 NW5       30.21R
ELMIRA         MOSUNNY   70  61  73 N6        30.22R
BINGHAMTON     MOSUNNY   68  62  81 NW7       30.23R
MONTICELLO     CLOUDY    66  64  94 NW6       30.20R
$$

NYZ026>034-041>043-087-291300-
NORTH


CITY           SKY/WX    TMP DP  RH WIND       PRES   REMARKS
WATERTOWN      SUNNY     65  62  90 CALM      30.21R
FORT DRUM      NOT AVBL
MASSENA        SUNNY     65  58  78 W9        30.18R
SARANAC LAKE   CLOUDY    62  55  77 VRB7      30.17R
PLATTSBURGH    MOSUNNY   70  61  73 N9        30.11R
$$

NYZ001>004-010>016-019>021-085-291300-
WEST


CITY           SKY/WX    TMP DP  RH WIND       PRES   REMARKS
NIAGARA FALLS  MOSUNNY   71  61  70 CALM      30.24S
BUFFALO        MOSUNNY   68  61  78 NW5       30.25R
DUNKIRK        MOSUNNY   65  62  90 S3        30.26R
JAMESTOWN      SUNNY     63  57  82 N7        30.28R
WELLSVILLE     CLOUDY    64  61  90 NW9       30.29R
ROCHESTER      PTSUNNY   67  64  90 NW5       30.24R
PENN YAN       CLOUDY    69  63  81 NW8       30.24R
$$

             KEY
       WCI = WIND CHILL INDEX
       VSB = VISIBILITY
       HX  = HEAT INDEX
$$




USA.gov is the U.S. government's official web portal to all federal, state and local government web resources and services.